Location: Caltech
(34.1382°N, 118.1253°W)
Time: 11:46:51
(UTC-07:00)

Cosmos 1937 Rocket - Visible Passes

Search period start: 02 September 2014 00:00
Search period end: 12 September 2014 00:00
Orbit: 748 x 781 km, 74.1° (Epoch: 01 September)

Date Brightness Start Highest point End Pass type
(mag) Time Alt. Az. Time Alt. Az. Time Alt. Az.
02 Sep 4.8 03:28:25 36° NE 03:28:25 36° NE 03:31:43 10° NNE visible
02 Sep 5.1 05:08:38 16° WNW 05:09:00 16° WNW 05:12:09 10° NNW visible
03 Sep 5.9 02:51:32 18° ENE 02:51:32 18° ENE 02:53:12 10° NE visible
03 Sep 4.7 04:31:45 27° NW 04:31:45 27° NW 04:35:12 10° N visible
04 Sep 4.8 03:54:49 31° NNW 03:54:49 31° NNW 03:57:42 10° N visible
05 Sep 5.4 03:17:51 24° NNE 03:17:51 24° NNE 03:19:51 10° NNE visible
06 Sep 6.2 02:40:51 15° NE 02:40:51 15° NE 02:41:41 10° NNE visible
06 Sep 5.6 04:21:04 15° NW 04:21:04 15° NW 04:22:27 10° NNW visible
07 Sep 5.6 03:44:02 17° NNW 03:44:02 17° NNW 03:45:21 10° N visible
08 Sep 6.0 03:06:57 15° N 03:06:57 15° N 03:07:46 10° N visible
09 Sep 6.5 02:29:52 10° NNE 02:29:52 10° NNE 02:29:52 10° NNE visible
